Alma, GA

4:59 PM EDT on July 22, 2017 (GMT -0400)
Bacon County

Weather History for KAMG - May, 2013

Change the Weather History Date:

Sunday, May 19, 2013

  Actual Average Record
Temperature  
Mean Temperature 77 °F 75 °F  
Max Temperature 89 °F 86 °F 97 °F (1960)
Min Temperature 64 °F 63 °F 48 °F (2011)
Degree Days  
Heating Degree Days 0 0  
Month to date heating degree days 13 3  
Since 1 July heating degree days 1603 1656  
Cooling Degree Days 12 10  
Month to date cooling degree days 77 141  
Year to date cooling degree days 194 295  
Growing Degree Days 26 (Base 50)    
Moisture  
Dew Point 66 °F    
Average Humidity 72    
Maximum Humidity 100    
Minimum Humidity 43    
Precipitation  
Precipitation 0.42 in 0.08 in 3.93 in (1969)
Month to date precipitation 2.83 1.28  
Year to date precipitation 18.47 16.90  
Snow  
Snow 0.00 in 0.00 in 0.00 in ()
Month to date snowfall 0.0 0.0  
Since 1 July snowfall T 0.1  
Snow Depth 0.00 in    
Sea Level Pressure  
Sea Level Pressure 30.07 in    
Wind  
Wind Speed 3 mph (SE)    
Max Wind Speed 16 mph    
Max Gust Speed 28 mph    
Visibility 6 miles    
Events Fog , Rain , Thunderstorm    
T = Trace of Precipitation, MM = Missing Value Source: NWS Daily Summary

Daily Weather History Graph

Daily Weather History Graph

Search for Another Location

Airport or City:

Trip Planner

Search our weather history database for the weather conditions in past years. The results will help you decide how hot, cold, wet, or windy it might be!

Date:

Astronomy

May. 19, 2013 Rise Set
Actual Time 6:31 AM EDT 8:22 PM EDT
Civil Twilight 6:04 AM EDT 8:49 PM EDT
Nautical Twilight 5:31 AM EDT 9:22 PM EDT
Astronomical Twilight 4:57 AM EDT 9:56 PM EDT
Moon 2:46 PM EDT (5/19) 2:31 AM EDT (5/19)
Length of Visible Light 14h 45m
Length of Day
13h 51m
Waxing Gibbous, 65% of the Moon is Illuminated
May 19
Waxing Gibbous
May 25
Full
May 31
Last Quarter
Jun 8
New
Jun 16
First Quarter

Hourly Weather History & Observations

Time (EDT) Temp. Heat Index Dew Point Humidity Pressure Visibility Wind Dir Wind Speed Gust Speed Precip Events Conditions
12:53 AM 64.9 °F - 63.0 °F 93% 30.09 in 4.0 mi Calm Calm - N/A   Clear
1:53 AM 66.0 °F - 64.0 °F 93% 30.07 in 6.0 mi Calm Calm - N/A   Clear
2:53 AM 66.9 °F - 64.9 °F 93% 30.05 in 8.0 mi ESE 3.5 mph - N/A   Partly Cloudy
3:53 AM 66.0 °F - 64.9 °F 96% 30.06 in 7.0 mi Calm Calm - N/A   Overcast
4:53 AM 66.9 °F - 64.9 °F 93% 30.06 in 6.0 mi ESE 3.5 mph - N/A   Mostly Cloudy
5:53 AM 66.9 °F - 64.9 °F 93% 30.06 in 5.0 mi Calm Calm - N/A   Scattered Clouds
6:37 AM 66.2 °F - 64.4 °F 94% 30.07 in 2.0 mi Calm Calm - N/A   Clear
6:45 AM 64.4 °F - 64.4 °F 100% 30.07 in 1.0 mi East 3.5 mph - N/A   Clear
6:53 AM 64.9 °F - 64.0 °F 97% 30.06 in 1.2 mi East 3.5 mph - N/A   Clear
7:03 AM 66.2 °F - 64.4 °F 94% 30.08 in 2.5 mi Calm Calm - N/A   Clear
7:10 AM 66.2 °F - 64.4 °F 94% 30.08 in 2.5 mi ESE 3.5 mph - N/A   Scattered Clouds
7:14 AM 66.2 °F - 64.4 °F 94% 30.08 in 1.8 mi Calm Calm - N/A   Mostly Cloudy
7:21 AM 66.2 °F - 66.2 °F 100% 30.08 in 0.2 mi ESE 3.5 mph - N/A Fog Fog
7:51 AM 68.0 °F - 66.2 °F 94% 30.09 in 0.5 mi Calm Calm - N/A Fog Fog
8:17 AM 69.8 °F - 68.0 °F 94% 30.09 in 1.5 mi SE 5.8 mph - N/A   Overcast
8:24 AM 69.8 °F - 68.0 °F 94% 30.10 in 3.0 mi SSE 4.6 mph - N/A   Overcast
8:37 AM 69.8 °F - 68.0 °F 94% 30.10 in 5.0 mi SSE 3.5 mph - N/A   Overcast
8:53 AM 70.0 °F - 68.0 °F 93% 30.10 in 6.0 mi SSE 5.8 mph - N/A   Overcast
9:08 AM 71.6 °F - 69.8 °F 94% 30.10 in 6.0 mi SSE 4.6 mph - N/A   Overcast
9:53 AM 75.9 °F - 70.0 °F 82% 30.10 in 10.0 mi SSW 5.8 mph - N/A   Mostly Cloudy
10:45 AM 80.6 °F 83.9 °F 69.8 °F 70% 30.11 in 10.0 mi West 8.1 mph - N/A   Mostly Cloudy
10:53 AM 78.1 °F - 69.1 °F 74% 30.10 in 10.0 mi West 5.8 mph - N/A   Mostly Cloudy
11:48 AM 80.6 °F 82.7 °F 66.2 °F 61% 30.10 in 10.0 mi Calm Calm - N/A   Scattered Clouds
11:53 AM 82.0 °F 84.9 °F 68.0 °F 62% 30.09 in 10.0 mi Calm Calm - N/A   Partly Cloudy
12:53 PM 84.0 °F 86.3 °F 66.0 °F 55% 30.08 in 10.0 mi Calm Calm - N/A   Scattered Clouds
1:53 PM 86.0 °F 87.6 °F 64.9 °F 49% 30.04 in 10.0 mi SSE 4.6 mph - N/A   Clear
3:53 PM 89.1 °F 90.3 °F 64.0 °F 43% 29.99 in 10.0 mi Calm Calm - N/A   Scattered Clouds
4:53 PM 88.0 °F 88.4 °F 62.1 °F 42% 30.00 in 10.0 mi Calm Calm - N/A   Mostly Cloudy
5:53 PM 84.9 °F 87.6 °F 66.9 °F 55% 30.00 in 10.0 mi Calm Calm - N/A   Scattered Clouds
6:49 PM 71.6 °F - 66.2 °F 83% 30.02 in 5.0 mi Variable 4.6 mph 23.0 mph 0.01 in Rain , Thunderstorm Thunderstorms and Rain
6:53 PM 72.0 °F - 66.9 °F 84% 30.04 in 2.5 mi Variable 6.9 mph 23.0 mph 0.04 in Rain , Thunderstorm Thunderstorms and Rain
7:01 PM 71.6 °F - 68.0 °F 88% 30.04 in 1.0 mi West 10.4 mph - 0.12 in Rain , Thunderstorm Heavy Thunderstorms and Rain
7:10 PM 69.8 °F - 66.2 °F 88% 30.04 in 0.8 mi NE 6.9 mph - 0.29 in Rain , Thunderstorm Heavy Thunderstorms and Rain
7:24 PM 69.8 °F - 68.0 °F 94% 30.05 in 1.8 mi East 8.1 mph - 0.38 in Rain , Thunderstorm Thunderstorms and Rain
7:27 PM 69.8 °F - 68.0 °F 94% 30.04 in 2.5 mi East 8.1 mph - 0.38 in Rain , Thunderstorm Light Thunderstorms and Rain
7:29 PM 69.8 °F - 68.0 °F 94% 30.04 in 4.0 mi East 8.1 mph - 0.38 in Rain , Thunderstorm Light Rain
7:53 PM 71.1 °F - 69.1 °F 93% 30.03 in 6.0 mi East 6.9 mph - 0.38 in Rain Light Rain
8:53 PM 70.0 °F - 66.9 °F 90% 30.04 in 10.0 mi ESE 5.8 mph - 0.00 in   Scattered Clouds
9:53 PM 70.0 °F - 68.0 °F 93% 30.09 in 10.0 mi NW 4.6 mph - N/A   Mostly Cloudy
10:53 PM 69.1 °F - 66.9 °F 93% 30.09 in 9.0 mi NNW 3.5 mph - N/A   Clear
11:53 PM 69.1 °F - 66.9 °F 93% 30.06 in 6.0 mi SSE 3.5 mph - N/A   Clear